North Vernon, Indiana, United States (47265)
Lat: 39.01N, Lon: 85.62W
Wx Zone: INZ072
Local Info
Past Weather Observations for Friday, March 27, 2015

NOTE: This archive is for the closest National Weather Service station to North Vernon. Information may differ from the station used for current weather conditions.

Click here for Long-term Archive

Time Weather Temperature Dewpoint Humidity Pressure Winds Precip Visibility
23:53
Overcast
25°F / -4°C 14°F / -10°C 63% 30.15 in
(1021 mb)
N 9.2 mph
(N 15 kph)
- 10SM
22:53
Overcast
27°F / -3°C 12°F / -11°C 54% 30.15 in
(1021 mb)
NNW 11.5 mph
(NNW 19 kph)
- 10SM
21:53
Overcast
28°F / -2°C 16°F / -9°C 59% 30.15 in
(1021 mb)
N 16.1 mph
(N 26 kph)
- 10SM
20:53
Overcast
28°F / -2°C 14°F / -10°C 55% 30.12 in
(1020 mb)
NNW 15 mph
(NNW 24 kph)
- 10SM
19:53
Overcast
28°F / -2°C 14°F / -10°C 55% 30.09 in
(1019 mb)
NNW 13.8 mph
(NNW 22 kph)
- 10SM
18:53
Overcast
30°F / -1°C 18°F / -8°C 59% 30.09 in
(1019 mb)
NNW 15 mph
(NNW 24 kph)
- 10SM
17:53
Overcast
32°F / 0°C 16°F / -9°C 51% 30.06 in
(1018 mb)
NNW 13.8 mph
(NNW 22 kph)
- 10SM
16:53
Overcast
34°F / 1°C 16°F / -9°C 48% 30.06 in
(1018 mb)
NW 18.4 mph
(NW 30 kph)
- 10SM
15:53
Overcast
34°F / 1°C 19°F / -7°C 56% 30.06 in
(1018 mb)
NNW 16.1 mph
(NNW 26 kph)
- 10SM
14:53
Overcast
34°F / 1°C 18°F / -8°C 51% 30.06 in
(1018 mb)
NNW 15 mph
(NNW 24 kph)
- 10SM
13:53
Overcast
34°F / 1°C 18°F / -8°C 51% 30.06 in
(1018 mb)
NNW 18.4 mph
(NNW 30 kph)
0.00 in
(0.00 mm)
10SM
12:53
Overcast
34°F / 1°C 21°F / -6°C 60% 30.06 in
(1018 mb)
N 12.7 mph
(N 20 kph)
- 10SM
11:53
Overcast
34°F / 1°C 21°F / -6°C 60% 30.06 in
(1018 mb)
NNW 13.8 mph
(NNW 22 kph)
- 10SM
10:53
Overcast
34°F / 1°C 21°F / -6°C 60% 30.06 in
(1018 mb)
N 12.7 mph
(N 20 kph)
- 10SM
09:53
Partly Cloudy
36°F / 2°C 23°F / -5°C 60% 30.04 in
(1017 mb)
N 13.8 mph
(N 22 kph)
- 10SM
08:53
Partly Cloudy
34°F / 1°C 25°F / -4°C 70% 30.04 in
(1017 mb)
N 12.7 mph
(N 20 kph)
- 10SM
08:45
Mostly Cloudy
34°F / 1°C 25°F / -4°C 70% 30.04 in
(1017 mb)
NNW 13.8 mph
(NNW 22 kph)
- 10SM
08:22
Mostly Cloudy
34°F / 1°C 25°F / -4°C 70% 30.04 in
(1017 mb)
N 9.2 mph
(N 15 kph)
- 10SM
07:53
Overcast
34°F / 1°C 25°F / -4°C 70% 30.04 in
(1017 mb)
NNW 5.8 mph
(NNW 9 kph)
- 10SM
06:53
Mostly Cloudy
32°F / 0°C 25°F / -4°C 75% 30.01 in
(1016 mb)
N 8.1 mph
(N 13 kph)
- 10SM
05:53
Partly Cloudy
30°F / -1°C 25°F / -4°C 80% 30.01 in
(1016 mb)
NNW 8.1 mph
(NNW 13 kph)
- 10SM
04:53
Clear
30°F / -1°C 25°F / -4°C 80% 30.01 in
(1016 mb)
NNW 9.2 mph
(NNW 15 kph)
- 10SM
03:53
Clear
32°F / 0°C 25°F / -4°C 75% 29.98 in
(1015 mb)
N 5.8 mph
(N 9 kph)
- 10SM
02:53
Clear
30°F / -1°C 27°F / -3°C 86% 30.01 in
(1016 mb)
N 6.9 mph
(N 11 kph)
- 10SM
01:53
Clear
34°F / 1°C 27°F / -3°C 75% 30.01 in
(1016 mb)
N 4.6 mph
(N 7 kph)
- 10SM
00:53
Clear
36°F / 2°C 27°F / -3°C 70% 30.01 in
(1016 mb)
NE 5.8 mph
(NE 9 kph)
- 10SM
Time Weather Temperature Dewpoint Humidity Pressure Winds Precip Visibility


Weather for websites

WeatherForYou.com, LLC is not responsible for any damages or problems caused by this service. Current weather conditions are obtained from the closest station including government and personal stations which may have varying degrees of accuracy. Weather forecasts are derived from the NOAA NDFD. Like all things, this site belongs to Jesus Christ... He just trusts me to maintain it. If you have any questions or comments email webmaster@weatherforyou.com

Copyright © 2015, WeatherForYou.com LLC. All rights reserved.